Location: Hurecourt
(47.9030°N, 6.0653°E)
Time: 10:56:36
(UTC+00:00)

Cosmos 2221 Rocket - Pass Details

Date: 14 July 2020
Orbit: 619 x 649 km, 82.5° (Epoch: 05 August)

Event Time Altitude Azimuth Distance (km) Brightness Sun altitude
Rises 02:09:49 0° 344° (NNW) 2,913 7.6 -12.9°
Reaches altitude 10° 02:12:08 10° 338° (NNW) 1,999 6.6 -12.7°
Maximum altitude 02:16:19 43° 267° (W) 870 4.0 -12.3°
Enters shadow 02:19:25 17° 202° (SSW) 1,592 5.1 -12.0°
